Regional Weather Roundup
Issued by NWS

Home | Current Version | Previous Version | Text Only | Print | Product List | Glossary Off
Versions: 1 2 3 4 5 6 7 8 9 10 11 12 13 14 15 16 17 18 19 20 21 22 23 24 25 26 27 28 29 30 31 32 33 34 35 36 37 38 39 40 41 42 43 44 45 46 47 48 49 50

000
ASUS45 KSLC 302110
RWRUT

UTAH REGIONAL WEATHER ROUNDUP
NATIONAL WEATHER SERVICE SALT LAKE CITY UT
300 PM MDT WED JUL 30 2014

UTZ001>011-023>025-302200-

NORTHERN UTAH

CITY           SKY/WX    TMP DP  RH WIND       PRES   REMARKS
HILL AFB       PTSUNNY   77  57  50 E16       30.24S
LOGAN          CLOUDY    76  56  49 N9        30.23S
OGDEN          LGT RAIN  74  58  57 VRB7      30.21S
PROVO AIRPORT  PTSUNNY   79  61  53 W12       30.22S
SALT LAKE CITY PTSUNNY   76  58  53 SW3       30.19F
VERNAL         LGT RAIN  65  60  84 NW8       30.27R
WENDOVER       MOSUNNY   84  54  34 E13       30.20S
HEBER CITY     RAIN      64  57  77 NE8       30.30S
WEST JORDAN    CLOUDY    75  64  69 NW5       30.23F

$$

UTZ012>022-026-027-302200-

SOUTHERN UTAH

CITY           SKY/WX    TMP DP  RH WIND       PRES   REMARKS
BRYCE CANYON   PTSUNNY   76  45  33 W12G20    30.37S
CEDAR CITY     SUNNY     85  50  29 NW7G17    30.23F
MILFORD        SUNNY     85  52  32 N13G18    30.20F
MOAB/CYNLANDS  SUNNY     82  54  37 E5        30.13F
PRICE          CLOUDY    80  49  33 VRB3      30.22F
ST GEORGE      MOCLDY    99  54  22 SW5       30.00F HX  96
KANAB          PTSUNNY   91  50  24 S12       30.16F

$$

REGIONAL REPORTS     COLORADO/ARIZONA

CITY           SKY/WX    TMP DP  RH WIND       PRES   REMARKS
CRAIG, CO      CLOUDY    65  55  70 NE9       30.28S
GRAND JUNCTION LGT RAIN  82  52  35 W9        30.15F
RIFLE          PTSUNNY   78  52  40 VRB3      30.20F
MONTROSE       PTSUNNY   81  52  36 N9        30.23S
CORTEZ         SUNNY     86  45  23 W12G20    30.20F
PAGE, AZ       SUNNY     93  48  21 VRB3      30.08F
GRAND CANYON   PTSUNNY   84  45  25 VRB7G18   30.29F
KINGMAN        PTSUNNY   98  46  17 W9        30.04F HX  94
FLAGSTAFF      PTSUNNY   82  40  22 W12G20    30.33F

$$

REGIONAL REPORTS    NEVADA/IDAHO/WYOMING

CITY           SKY/WX    TMP DP  RH WIND       PRES   REMARKS
LAS VEGAS, NV  MOSUNNY  102  51  18 SW5       29.91F HX  99
ELY            SUNNY     81  42  25 N17       30.31F
ELKO           SUNNY     86  41  20 SE6       30.22F
POCATELLO, ID  MOSUNNY   85  51  31 VRB6      30.22S
BURLEY         SUNNY     84  50  30 VRB6      30.18F
EVANSTON, WY   CLOUDY    61  53  75 E17       30.39S
ROCK SPRINGS   RAIN      58  53  84 NE8       30.40R

$$


USA.gov is the U.S. government's official web portal to all federal, state and local government web resources and services.